#timestamp,LO_Frequency,Hit,StdDev 
1557018015.4,286047000.3,N
1557018035.2,286047001.0,N
1557018055.1,286047000.7,N
1557018056.0,286047000.7,N
1557018075.8,286046998.6,N
1557018095.6,286046998.6,N
1557018115.5,286047000.8,N
1557018135.3,286047001.0,N
1557018155.1,286047000.7,N
1557018175.9,286047000.2,N
1557018195.7,286046999.8,N
1557018215.5,286047000.3,N
1557018235.3,286047002.6,Y
1557018255.2,286047002.3,P
1557018275.0,286047002.6,N
1557018275.9,286047002.6,N
1557018295.7,286047001.4,N
1557018315.6,286047003.2,Y
1557018335.4,286047002.5,P
1557018355.2,286047002.0,P
1557018375.1,286047003.2,P
1557018376.0,286047003.2,Y
1557018395.8,286047002.0,P
1557018415.6,286047001.5,P
1557018435.5,286047002.7,P
1557018455.3,286047003.7,Y
1557018475.1,286047001.9,P
1557018495.9,286047002.4,P
1557018515.7,286047000.1,N
1557018535.5,286047000.0,N
1557018555.4,286047001.1,N
1557018575.2,286047000.1,N
1557018595.0,286046999.8,N
1557018595.9,286046999.8,N
1557018615.8,286047003.8,Y
1557018635.6,286047004.3,P
1557018655.4,286047004.4,N
1557018675.3,286047005.6,P
1557018695.1,286047005.1,N
1557018696.0,286047005.1,Y
1557018715.8,286047000.0,P
1557018735.7,286047004.1,N
1557018755.5,286047000.3,N
1557018775.3,286047002.4,N
1557018795.2,286047002.0,N
1557018815.9,286047002.1,N
1557018835.7,286047001.4,N
1557018855.6,286047001.4,N
1557018875.4,286047000.2,N
1557018895.2,286047004.4,Y
1557018915.0,286046999.9,P
1557018916.0,286046999.9,N
1557018935.8,286047000.5,N
1557018955.6,286047000.0,N
1557018975.4,286047000.2,N
1557018995.3,286047000.3,N
1557019015.1,286047000.2,N
1557019035.8,286047001.6,N
1557019055.7,286047004.2,Y
1557019075.5,286047002.3,P
1557019095.3,286047004.0,P
1557019115.2,286047004.3,N
1557019135.9,286047003.6,N
1557019155.7,286047003.7,N
1557019175.6,286047003.7,N
1557019195.4,286047003.1,N
1557019215.2,286047004.0,Y
1557019235.1,286047000.3,P
1557019236.0,286047000.3,N
1557019255.8,286047002.7,N
1557019275.6,286047002.4,N
1557019295.5,286047002.2,N
1557019315.3,286047002.2,N
1557019335.1,286047002.5,N
1557019355.8,286047002.5,N
1557019375.7,286047001.3,N
1557019395.5,286047001.7,N
1557019415.3,286047002.6,N
1557019435.2,286047001.4,N
1557019455.9,286047001.8,N
1557019475.7,286047001.8,N
1557019495.6,286047001.8,N
1557019515.4,286047001.8,N
1557019535.2,286047003.1,Y
1557019555.1,286047003.5,P
1557019556.0,286047003.5,P
1557019575.8,286047003.0,P
1557019595.6,286047005.5,Y
1557019615.5,286047002.7,P
1557019635.3,286047000.4,N
1557019655.1,286047003.9,P
1557019675.9,286047003.8,N
1557019695.7,286047005.5,Y
1557019715.5,286047004.4,P
1557019735.4,286047004.2,P
1557019755.2,286047003.5,P
1557019775.0,286047004.1,Y
1557019775.9,286047004.1,P
1557019795.8,286047001.0,P
1557019815.6,286047000.2,N
1557019835.4,286047000.3,N
1557019855.3,286047002.6,N
1557019875.1,286047003.8,N
1557019876.0,286047003.8,N
1557019895.8,286047003.6,N
1557019915.7,286047005.3,Y
1557019935.5,286047001.4,P
1557019955.3,286047001.8,P
1557019975.1,286047002.2,P
1557019995.9,286047002.6,Y
1557020015.7,286047000.9,P
1557020035.6,286047000.6,N
1557020055.4,286047000.8,N
1557020075.2,286046998.3,Y
1557020095.0,286046999.3,P
1557020096.0,286046999.3,N
1557020115.8,286046998.7,N
1557020135.6,286047000.3,N
1557020155.4,286046999.8,N
1557020175.3,286047000.1,N
1557020195.1,286047002.4,Y
1557020215.8,286047002.1,P
1557020235.7,286047002.5,N
1557020255.5,286047001.5,N
1557020275.3,286047005.0,Y
1557020295.2,286047002.9,P
1557020315.0,286047005.2,P
1557020315.9,286047005.2,P
1557020335.7,286047002.9,N
1557020355.6,286047005.4,Y
1557020375.4,286047001.9,P
1557020395.2,286047002.2,N
1557020415.1,286047001.6,N
1557020416.0,286047001.6,N
1557020435.8,286047004.0,Y
1557020455.6,286047000.5,P
1557020475.5,286046998.5,N
1557020495.3,286046998.9,N
1557020515.1,286047000.5,N
1557020535.9,286047000.2,N
1557020555.7,286046999.8,N
1557020575.5,286047002.6,N
1557020595.4,286047002.1,N
1557020615.2,286047001.9,N
1557020635.0,286047003.9,N
1557020635.9,286047003.9,N
1557020655.7,286047003.4,N
1557020675.6,286047003.6,N
1557020695.4,286047005.6,Y
1557020715.2,286047003.8,P
1557020735.1,286047003.0,N
1557020736.0,286047003.0,P
1557020755.8,286047002.9,Y
1557020775.7,286047001.3,P
1557020795.5,286047001.4,N
1557020815.3,286047004.1,P
1557020835.1,286047003.2,N
1557020855.9,286047003.6,Y
1557020875.7,286047000.6,P
1557020895.5,286047000.1,N
1557020915.4,286046999.9,N
1557020935.2,286046999.7,N
1557020955.0,286047000.0,N
1557020955.9,286047000.0,N
1557020975.8,286047002.8,Y
1557020995.6,286047002.3,P
1557021015.4,286047002.7,N
1557021035.3,286047001.5,N
1557021055.1,286047003.8,Y
1557021075.8,286047002.5,P
1557021095.7,286047002.2,P
1557021115.5,286047002.0,P
1557021135.3,286047003.4,Y
1557021155.2,286047002.6,P
1557021175.0,286047001.4,P
1557021175.9,286047001.4,N
1557021195.7,286047001.7,Y
1557021215.6,286047000.7,P
1557021235.4,286047000.6,N
1557021255.2,286047000.4,N
1557021275.1,286047001.0,N
1557021276.0,286047001.0,N
1557021295.8,286047000.1,N
1557021315.6,286047000.9,N
1557021335.5,286047002.7,Y
1557021355.3,286047001.0,P
1557021375.1,286047000.6,P
1557021395.9,286047000.9,P
1557021415.7,286046998.1,Y
1557021435.5,286046999.0,P
1557021455.4,286046997.1,P
1557021475.2,286046999.1,N
1557021495.0,286046998.2,N
1557021495.9,286046998.2,N
1557021515.8,286047003.4,N
1557021535.6,286047005.0,N
1557021555.4,286047008.0,Y
1557021575.3,286047008.0,P
1557021595.1,286047008.9,N
1557021596.0,286047008.9,N
